Cloud_Cover
100 100 100 100 52 64 100 100 100 100 100 100 100 100 100 100 96 9 28 99 100 100 100 100 100 100 100 100 100 100 100 100 93 42 36 58 10 16 96 28 1 5 5 3 29 91 98 18 1
4 21 68 100 100 100 66 84 100 100 100 100 100 100 100 100 99 99 40 100 100 100 100 100 100 100 100 100 100 100 100 100 100 87 6 13 11 42 6 77 7 32 68 99 21 100 75 76 59
0 3 5 28 97 100 100 88 99 100 100 100 100 100 100 100 100 100 100 94 100 100 100 100 100 100 100 100 100 100 100 100 100 98 80 29 54 5 5 81 26 59 100 100 100 100 31 100 15
0 2 0 0 56 78 36 100 100 94 70 97 100 100 100 100 100 100 100 100 100 100 100 100 100 100 100 100 100 100 100 100 100 100 99 55 69 7 15 58 92 82 6 100 100 100 67 100 71
0 0 0 0 2 5 5 55 98 100 100 79 5 29 93 100 100 100 100 100 100 100 100 78 100 100 100 100 100 100 100 100 100 100 100 100 86 17 63 20 99 33 1 16 100 100 100 100 96
0 0 0 0 0 0 0 1 2 88 19 99 100 100 63 15 75 100 100 100 100 100 75 76 100 100 100 100 100 100 100 100 100 100 100 100 99 86 41 36 6 28 18 55 97 100 100 100 100
0 0 0 0 0 0 0 0 1 5 5 5 14 55 100 100 100 68 17 72 100 81 100 100 100 99 100 100 100 100 100 100 100 100 100 100 100 99 50 27 72 17 77 16 12 91 100 100 100
0 0 0 0 0 0 0 0 0 0 0 0 0 1 2 13 49 98 52 34 40 68 60 96 98 100 100 100 100 100 100 100 100 100 100 100 100 100 92 100 100 49 8 28 100 49 100 100 100
0 0 0 0 0 0 0 0 0 0 0 0 0 0 0 0 0 1 1 12 4 14 85 90 73 84 100 100 100 100 100 100 100 100 100 100 100 100 100 100 100 100 86 22 77 100 88 100 98
0 0 0 0 0 0 0 0 0 0 0 0 0 0 0 0 0 0 0 0 0 0 0 0 0 4 20 74 86 100 100 100 100 100 100 100 100 100 100 100 93 100 99 88 24 25 68 100 100
5 0 5 3 0 0 0 0 0 0 0 0 0 0 0 0 0 0 0 0 0 0 0 0 0 0 4 5 13 91 100 100 100 100 100 100 100 100 100 100 80 98 100 99 52 77 100 100 91
97 35 11 78 72 10 5 1 0 5 5 5 4 0 0 0 0 0 0 0 0 0 0 0 0 0 0 0 0 4 99 100 100 100 100 100 100 100 100 100 100 100 100 100 72 100 92 91 100
88 100 98 62 13 91 94 11 5 16 5 5 5 4 0 0 0 0 0 0 0 0 0 0 0 0 0 0 0 0 1 100 100 100 100 100 100 100 100 100 100 100 98 98 100 100 100 96 80
68 100 87 100 100 100 85 100 100 100 100 89 14 5 3 2 2 3 4 0 0 0 0 0 0 0 0 0 0 0 0 9 30 4 100 100 100 100 100 100 100 100 100 100 100 100 100 100 84
5 5 78 99 100 100 100 100 100 100 100 96 63 41 30 5 51 49 9 2 5 1 0 0 0 0 0 0 0 0 0 0 0 0 100 100 100 100 100 100 100 100 100 100 100 100 100 100 98
8 5 9 8 70 100 100 94 100 100 100 100 100 100 91 83 95 49 7 20 5 1 0 0 0 0 0 0 0 0 2 0 0 0 94 50 100 100 100 100 100 100 100 100 100 100 100 100 100
100 64 37 26 91 100 97 100 100 100 100 100 100 100 100 100 100 17 58 18 5 0 0 0 0 0 0 0 0 4 5 5 5 5 5 5 100 100 100 100 100 100 100 100 100 100 100 100 100
98 100 100 98 98 100 100 100 100 100 100 100 100 100 100 100 55 3 3 0 0 0 0 0 0 0 0 0 0 1 5 5 5 5 5 5 85 90 100 100 100 100 100 100 100 100 100 100 100
100 100 100 100 100 100 92 100 100 100 100 100 100 100 100 100 80 5 0 0 0 0 0 0 0 0 0 0 0 4 5 5 5 5 5 5 5 21 100 100 100 100 100 100 100 100 100 100 100
100 100 100 100 100 100 100 100 100 100 100 100 89 54 25 77 5 2 0 0 0 0 0 0 0 0 0 0 1 5 5 5 5 5 5 5 5 5 98 100 100 100 100 100 100 100 100 100 100
100 100 100 100 100 100 100 100 100 100 100 100 18 94 24 8 0 0 0 0 0 0 0 0 0 0 0 0 4 5 30 5 5 6 5 6 19 28 23 100 100 100 100 100 100 100 100 100 100
100 100 100 100 100 100 100 100 100 100 69 24 12 1 1 71 0 0 0 0 0 0 0 0 0 0 0 0 5 83 97 87 73 82 69 10 44 10 27 100 100 100 100 100 100 100 100 100 100
100 100 100 100 100 100 100 100 100 100 100 100 13 5 5 0 0 0 0 0 0 1 4 0 5 0 0 5 16 99 96 97 97 97 96 84 59 25 26 67 100 100 100 100 100 100 100 100 100
96 100 100 100 77 6 97 78 7 100 100 96 5 3 0 0 0 0 0 0 0 1 4 4 5 0 0 5 19 97 100 99 96 94 91 78 84 79 69 77 100 100 100 100 100 100 100 100 100
93 100 93 40 91 71 99 70 99 100 100 10 3 5 5 0 0 0 0 0 0 0 0 5 5 3 0 5 8 97 100 100 100 96 98 100 100 100 100 100 100 100 100 100 100 100 100 100 100
100 100 97 31 74 100 100 100 100 100 14 5 5 5 5 0 0 0 0 0 0 0 0 1 5 5 2 5 5 100 100 100 100 100 100 100 100 100 100 100 100 100 100 100 100 100 100 100 100
100 100 100 94 92 100 100 100 100 94 10 5 5 4 0 1 0 0 0 0 0 0 0 5 5 5 5 5 5 94 98 100 100 100 100 100 100 100 100 100 100 100 100 100 100 100 100 100 100
100 100 100 100 83 100 100 100 100 97 61 56 5 5 1 0 0 0 0 0 0 0 1 5 5 5 5 5 15 87 100 99 100 100 100 100 100 100 100 100 100 100 100 100 100 100 100 100 100
100 100 96 96 93 95 99 100 100 100 47 88 40 5 5 0 0 0 0 0 0 0 4 5 5 5 5 5 15 66 100 100 100 100 100 100 100 100 100 100 100 100 100 100 100 100 100 100 100
100 100 100 100 64 34 76 100 100 86 96 94 61 5 0 0 4 0 0 0 0 0 0 4 5 5 5 5 14 92 100 100 100 100 100 100 100 100 100 100 100 100 100 100 100 100 100 100 100